Flag for Austria Weather past 2 weeks in Waidhofen an der Ybbs, Lower Austria, Austria

52 °F

Partly sunny.

Feels Like: 45 °F
Forecast: 43 / 47 °F
Wind: 26 mph from West

Location: Linz / Hoersching-Flughafen

Current Time: Nov 30, 2015 at 9:55:38 AM

Latest Report: Nov 30, 2015 at 8:50 AM

Visibility: N/A

Pressure: 30.12 "Hg

Humidity: 62%

Dew point: 39 °F

Location of Waidhofen an der YbbsLocation

Historic Weather in Waidhofen an der Ybbs — Graph


Waidhofen an der Ybbs temperature yesterday

Maximum temperature yesterday: 48 °F (at 9:20 PM)
Minimum temperature yesterday: 32 °F (at 7:20 AM)
Average temperature yesterday: 41 °F

Past Weeks' High & Low Weather Summary

High63 °F (Nov 18, 9:20 AM)100% (Nov 15, 8:20 AM)30.30 "Hg (Nov 15, 8:20 AM)
Low21 °F (Nov 25, 5:20 AM)45% (Nov 18, 11:50 AM)29.42 "Hg (Nov 21, 1:50 PM)
Average42 °F82%29.95 "Hg
* Reported Nov 15 8:20 AM — Nov 30 8:20 AM, Waidhofen an der Ybbs, Weather by CustomWeather, © 2015

Note: Actual official high and low records may vary slightly from our data, if they occured in-between our weather recording intervals... More about our weather records


Waidhofen an der Ybbs weather history for previous 24 hours

Time TempWeatherWind HumidityBarometerVisibility
8:20 AM
Mon, Nov 30
52 °FPartly sunny.26 mph62%30.09 "HgN/A
7:50 AM52 °FPartly sunny.26 mph62%30.09 "HgN/A
7:20 AM50 °FLight rain. Partly cloudy.28 mph67%30.09 "HgN/A
6:50 AM52 °FPassing clouds.28 mph58%30.07 "HgN/A
6:20 AM52 °FLight rain. Passing clouds.25 mph58%30.07 "HgN/A
5:50 AM52 °FLight rain. Passing clouds.25 mph58%30.07 "HgN/A
5:20 AM52 °FPassing clouds.25 mph58%30.07 "HgN/A
4:20 AM52 °FPartly cloudy.23 mph58%30.07 "HgN/A
3:50 AM52 °FPartly cloudy.21 mph58%30.07 "HgN/A
3:20 AM50 °FPartly cloudy.20 mph62%30.07 "HgN/A
2:50 AM52 °FPartly cloudy.21 mph58%30.07 "HgN/A
2:20 AM52 °FPartly cloudy.22 mph58%30.07 "HgN/A
1:20 AM50 °FPartly cloudy.20 mph67%30.07 "HgN/A
12:50 AM50 °FLight rain. Partly cloudy.21 mph71%30.07 "HgN/A
11:50 PM
Sun, Nov 29
48 °FLight rain. Passing clouds.17 mph76%30.07 "HgN/A
11:20 PM48 °FLight rain. Passing clouds.21 mph71%30.07 "HgN/A
10:50 PM48 °FPassing clouds.16 mph71%30.07 "HgN/A
10:20 PM48 °FPartly cloudy.16 mph71%30.07 "HgN/A
9:50 PM48 °FPartly cloudy.17 mph71%30.07 "HgN/A
9:20 PM48 °FPartly cloudy.15 mph71%30.07 "HgN/A
8:50 PM46 °FPartly cloudy.13 mph82%30.09 "HgN/A
8:20 PM46 °FLight rain. Partly cloudy.16 mph82%30.07 "HgN/A
7:50 PM45 °FLight rain. Partly cloudy.15 mph87%30.09 "HgN/A
7:20 PM45 °FRain. Partly cloudy.15 mph87%30.09 "HgN/A
6:50 PM45 °FLight rain. Passing clouds.13 mph87%30.09 "HgN/A
6:20 PM45 °FLight rain. Passing clouds.13 mph87%30.09 "HgN/A
5:50 PM45 °FLight rain. Mostly cloudy.14 mph87%30.09 "HgN/A
5:20 PM43 °FRain. Mostly cloudy.7 mph87%30.09 "HgN/A
4:50 PM43 °FRain. Passing clouds.10 mph87%30.07 "HgN/A
4:20 PM43 °FRain. Passing clouds.9 mph87%30.07 "HgN/A
3:50 PM43 °FRain. Partly sunny.9 mph87%30.09 "HgN/A
3:20 PM43 °FLight rain. Partly sunny.8 mph87%30.09 "HgN/A
2:50 PM43 °FLight rain. Partly sunny.7 mph87%30.09 "HgN/A
2:20 PM43 °FRain. Partly sunny.8 mph87%30.09 "HgN/A
1:50 PM43 °FLight rain. Partly sunny.10 mph87%30.09 "HgN/A
1:20 PM43 °FLight rain. Partly sunny.10 mph81%30.09 "HgN/A
12:50 PM43 °FLight rain. Broken clouds.14 mph81%30.09 "HgN/A
12:20 PM43 °FLight rain. Broken clouds.22 mph76%30.09 "HgN/A
11:50 AM43 °FLight rain. Partly sunny.14 mph76%30.09 "HgN/A
11:20 AM45 °FLight rain. Partly sunny.10 mph61%30.09 "HgN/A
10:50 AM41 °FLight rain. Partly sunny.3 mph66%30.12 "HgN/A
10:20 AM39 °FPartly sunny.3 mph70%30.12 "HgN/A
9:50 AM37 °FPartly sunny.1 mph75%30.12 "HgN/A
9:20 AM36 °FBroken clouds.2 mph87%30.12 "HgN/A
Weather by CustomWeather, © 2015

See weather overviewHow to use our weather pages